| time (UTC) | temp C | wind direction | speed KPH | gust KPH | rain 1hr cm | rain 24hr cm | rain mn cm | humidity % | barometer mb |
| 20260901190050 | 18 | 98 | 0.0 | 0.0 | 0.00 | 0.56 | 0.56 | 87 | 1022.4 |
| 20260901184546 | 18 | 94 | 0.0 | 0.0 | 0.00 | 0.56 | 0.56 | 88 | 1022.4 |
| 20260901183038 | 18 | 94 | 0.0 | 0.0 | 0.00 | 0.56 | 0.56 | 89 | 1022.2 |
| 20260901181537 | 18 | 88 | 0.0 | 0.0 | 0.03 | 0.56 | 0.56 | 89 | 1022.3 |
| 20260901180034 | 18 | 73 | 0.0 | 0.0 | 0.03 | 0.56 | 0.56 | 90 | 1022.0 |
| 20260901174539 | 17 | 59 | 0.0 | 0.0 | 0.03 | 0.56 | 0.56 | 90 | 1022.0 |
| 20260901173035 | 17 | 89 | 0.0 | 0.0 | 0.03 | 0.56 | 0.56 | 90 | 1021.8 |
| 20260901171531 | 17 | 82 | 0.0 | 0.0 | 0.00 | 0.53 | 0.53 | 90 | 1021.9 |
| 20260901170029 | 17 | 41 | 0.0 | 0.0 | 0.00 | 0.53 | 0.53 | 89 | 1021.9 |
| 20260901164529 | 17 | 41 | 0.0 | 0.0 | 0.00 | 0.53 | 0.53 | 90 | 1022.0 |
| 20260901163033 | 17 | 41 | 0.0 | 0.0 | 0.00 | 0.53 | 0.53 | 89 | 1022.2 |
| 20260901161526 | 17 | 97 | 0.0 | 0.0 | 0.00 | 0.53 | 0.53 | 90 | 1022.5 |
| 20260901160024 | 17 | 80 | 0.0 | 0.0 | 0.00 | 0.53 | 0.53 | 90 | 1022.3 |
| 20260901154524 | 17 | 79 | 0.0 | 0.0 | 0.00 | 0.53 | 0.53 | 90 | 1022.0 |
| 20260901153023 | 17 | 344 | 0.0 | 0.0 | 0.00 | 0.53 | 0.53 | 90 | 1021.8 |
| 20260901151530 | 16 | 103 | 0.0 | 0.0 | 0.00 | 0.53 | 0.53 | 91 | 1022.1 |
| 20260901150024 | 16 | 329 | 0.0 | 0.0 | 0.00 | 0.53 | 0.53 | 92 | 1022.0 |
| 20260901144521 | 16 | 82 | 0.0 | 0.0 | 0.03 | 0.53 | 0.53 | 93 | 1022.1 |
| 20260901143017 | 15 | 96 | 0.0 | 0.0 | 0.08 | 0.53 | 0.53 | 94 | 1022.1 |
| 20260901141513 | 15 | 95 | 0.0 | 0.0 | 0.10 | 0.53 | 0.53 | 94 | 1021.9 |
| 20260901140010 | 15 | 94 | 0.0 | 0.0 | 0.13 | 0.53 | 0.53 | 94 | 1022.0 |
| 20260901134509 | 15 | 95 | 0.0 | 0.0 | 0.15 | 0.51 | 0.51 | 94 | 1022.2 |
| 20260901133007 | 15 | 94 | 0.0 | 0.0 | 0.18 | 0.46 | 0.46 | 94 | 1022.3 |
| 20260901131506 | 14 | 94 | 0.0 | 0.0 | 0.25 | 0.43 | 0.43 | 94 | 1022.5 |
| 20260901130004 | 14 | 94 | 0.0 | 0.0 | 0.30 | 0.41 | 0.41 | 94 | 1022.5 |
| 20260901124505 | 14 | 94 | 0.0 | 0.0 | 0.33 | 0.36 | 0.36 | 94 | 1022.6 |
| 20260901123004 | 14 | 94 | 0.0 | 0.0 | 0.28 | 0.28 | 0.28 | 93 | 1022.8 |
| 20260901121609 | 14 | 94 | 0.0 | 0.0 | 0.18 | 0.18 | 0.18 | 93 | 1022.7 |
| 20260901120059 | 14 | 94 | 0.0 | 0.0 | 0.10 | 0.10 | 0.10 | 93 | 1022.3 |
| 20260901114558 | 14 | 94 | 0.0 | 0.0 | 0.03 | 0.03 | 0.03 | 93 | 1022.3 |
| 20260901113104 | 14 | 94 | 0.0 | 0.0 | 0.00 | 0.00 | 0.00 | 93 | 1021.9 |
| 20260901111556 | 13 | 94 | 0.0 | 0.0 | 0.00 | 0.00 | 0.00 | 93 | 1022.1 |
| 20260901110103 | 13 | 94 | 0.0 | 0.0 | 0.00 | 0.00 | 0.00 | 93 | 1022.0 |
| 20260901104600 | 13 | 94 | 0.0 | 0.0 | 0.00 | 0.00 | 0.00 | 93 | 1021.9 |
| 20260901103054 | 13 | 94 | 0.0 | 0.0 | 0.00 | 0.00 | 0.00 | 93 | 1021.6 |
| 20260901101550 | 13 | 94 | 0.0 | 0.0 | 0.00 | 0.00 | 0.00 | 93 | 1021.4 |
| 20260901100104 | 13 | 94 | 0.0 | 0.0 | 0.00 | 0.00 | 0.00 | 93 | 1021.3 |
| 20260901094554 | 13 | 94 | 0.0 | 0.0 | 0.00 | 0.00 | 0.00 | 93 | 1021.3 |
| 20260901093102 | 13 | 94 | 0.0 | 0.0 | 0.00 | 0.00 | 0.00 | 93 | 1021.2 |
| 20260901091559 | 13 | 94 | 0.0 | 0.0 | 0.00 | 0.00 | 0.00 | 93 | 1021.3 |
| 20260901090049 | 13 | 94 | 0.0 | 0.0 | 0.00 | 0.00 | 0.00 | 93 | 1021.2 |
| 20260901084549 | 13 | 94 | 0.0 | 0.0 | 0.00 | 0.00 | 0.00 | 93 | 1021.2 |
| 20260901083051 | 13 | 94 | 0.0 | 0.0 | 0.00 | 0.00 | 0.00 | 93 | 1021.3 |
| 20260901081548 | 13 | 94 | 0.0 | 0.0 | 0.00 | 0.00 | 0.00 | 93 | 1021.3 |
| 20260901080047 | 13 | 94 | 0.0 | 0.0 | 0.00 | 0.00 | 0.00 | 93 | 1021.1 |
| 20260901074547 | 13 | 94 | 0.0 | 0.0 | 0.00 | 0.00 | 0.00 | 93 | 1021.4 |
| 20260901073049 | 13 | 94 | 0.0 | 0.0 | 0.00 | 0.00 | 0.00 | 93 | 1021.4 |
| 20260901071544 | 13 | 94 | 0.0 | 0.0 | 0.00 | 0.00 | 0.00 | 93 | 1021.6 |
| 20260901070050 | 13 | 94 | 0.0 | 0.0 | 0.00 | 0.00 | 0.00 | 93 | 1021.6 |
| 20260901064545 | 13 | 94 | 0.0 | 0.0 | 0.00 | 0.00 | 0.00 | 93 | 1021.5 |
| 20260901063042 | 13 | 94 | 0.0 | 0.0 | 0.00 | 0.00 | 0.00 | 93 | 1021.7 |
| 20260901061541 | 13 | 94 | 0.0 | 0.0 | 0.00 | 0.00 | 0.00 | 93 | 1021.6 |
| 20260901060043 | 12 | 94 | 0.0 | 0.0 | 0.00 | 0.00 | 0.00 | 92 | 1021.7 |
| 20260901054541 | 13 | 94 | 0.0 | 0.0 | 0.00 | 0.00 | 0.00 | 92 | 1021.7 |
| 20260901053040 | 13 | 94 | 0.0 | 0.0 | 0.00 | 0.00 | 0.00 | 92 | 1021.7 |
| 20260901051544 | 13 | 94 | 0.0 | 0.0 | 0.00 | 0.00 | 0.00 | 92 | 1021.8 |
| 20260901050037 | 13 | 94 | 0.0 | 0.0 | 0.00 | 0.00 | 0.00 | 92 | 1021.6 |
| 20260901044547 | 13 | 94 | 0.0 | 0.0 | 0.00 | 0.00 | 0.00 | 92 | 1021.8 |
| 20260901043033 | 13 | 94 | 0.0 | 0.0 | 0.00 | 0.00 | 0.00 | 92 | 1021.7 |
| 20260901041533 | 13 | 94 | 0.0 | 0.0 | 0.00 | 0.00 | 0.00 | 91 | 1021.8 |
| 20260901040035 | 13 | 94 | 0.0 | 0.0 | 0.00 | 0.00 | 0.00 | 91 | 1021.8 |
| 20260901034529 | 13 | 94 | 0.0 | 0.0 | 0.00 | 0.00 | 0.00 | 91 | 1021.7 |
| 20260901033029 | 13 | 94 | 0.0 | 0.0 | 0.00 | 0.00 | 0.00 | 90 | 1021.8 |
| 20260901031528 | 13 | 94 | 0.0 | 0.0 | 0.00 | 0.00 | 0.00 | 90 | 1021.9 |
| 20260901030028 | 14 | 94 | 0.0 | 0.0 | 0.00 | 0.10 | 0.00 | 89 | 1022.0 |
| 20260901024531 | 14 | 94 | 0.0 | 0.0 | 0.00 | 0.10 | 0.00 | 89 | 1021.9 |
| 20260901023032 | 14 | 94 | 0.0 | 0.0 | 0.00 | 0.10 | 0.00 | 88 | 1021.9 |
| 20260901021529 | 15 | 94 | 0.0 | 0.0 | 0.00 | 0.10 | 0.00 | 88 | 1021.9 |
| 20260901020025 | 15 | 94 | 0.0 | 0.0 | 0.00 | 0.10 | 0.00 | 87 | 1021.8 |
| 20260901014526 | 15 | 94 | 0.0 | 0.0 | 0.00 | 0.10 | 0.00 | 86 | 1021.9 |
| 20260901013026 | 15 | 94 | 0.0 | 0.0 | 0.00 | 0.10 | 0.00 | 86 | 1022.0 |
| 20260901011525 | 15 | 94 | 0.0 | 0.0 | 0.00 | 0.10 | 0.00 | 85 | 1022.1 |
| 20260901010025 | 16 | 94 | 0.0 | 0.0 | 0.00 | 0.10 | 0.00 | 83 | 1022.1 |
| 20260901004532 | 16 | 94 | 0.0 | 0.0 | 0.00 | 0.10 | 0.00 | 81 | 1022.1 |
| 20260901003026 | 17 | 94 | 0.0 | 0.0 | 0.00 | 0.10 | 0.00 | 79 | 1021.9 |
| 20260901001527 | 17 | 94 | 0.0 | 0.0 | 0.00 | 0.10 | 0.00 | 78 | 1021.8 |
| 20260901000023 | 17 | 94 | 0.0 | 0.0 | 0.00 | 0.10 | 0.00 | 78 | 1021.8 |
| 20260831234522 | 18 | 94 | 0.0 | 0.0 | 0.00 | 0.10 | 0.00 | 76 | 1021.8 |
| 20260831233023 | 18 | 54 | 0.0 | 0.0 | 0.00 | 0.10 | 0.00 | 75 | 1021.9 |
| 20260831231524 | 19 | 54 | 0.0 | 0.0 | 0.00 | 0.10 | 0.00 | 73 | 1021.9 |
| 20260831230020 | 20 | 54 | 0.0 | 0.0 | 0.00 | 0.10 | 0.00 | 71 | 1022.0 |
| 20260831224520 | 20 | 72 | 0.0 | 0.0 | 0.00 | 0.10 | 0.00 | 71 | 1022.0 |
| 20260831223021 | 20 | 96 | 0.0 | 0.0 | 0.00 | 0.10 | 0.00 | 71 | 1022.0 |
| 20260831221530 | 20 | 63 | 0.0 | 0.0 | 0.00 | 0.10 | 0.00 | 70 | 1021.9 |
| 20260831220018 | 20 | 81 | 0.0 | 0.0 | 0.00 | 0.10 | 0.00 | 69 | 1021.9 |
| 20260831214533 | 21 | 72 | 0.0 | 0.0 | 0.00 | 0.10 | 0.00 | 66 | 1021.8 |
| 20260831213017 | 21 | 250 | 0.0 | 0.0 | 0.00 | 0.10 | 0.00 | 63 | 1021.9 |
| 20260831211521 | 21 | 214 | 0.0 | 0.0 | 0.00 | 0.10 | 0.00 | 64 | 1022.1 |
| 20260831210016 | 22 | 86 | 0.0 | 0.0 | 0.00 | 0.10 | 0.00 | 63 | 1022.0 |
| 20260831204516 | 22 | 88 | 0.0 | 0.0 | 0.00 | 0.10 | 0.00 | 62 | 1022.2 |
| 20260831203015 | 22 | 141 | 0.0 | 0.0 | 0.00 | 0.10 | 0.00 | 62 | 1022.2 |
| 20260831201523 | 22 | 27 | 0.0 | 0.0 | 0.00 | 0.10 | 0.00 | 60 | 1022.2 |
| 20260831200025 | 22 | 59 | 0.0 | 0.0 | 0.00 | 0.10 | 0.00 | 59 | 1022.2 |
| 20260831194513 | 22 | 118 | 0.0 | 1.6 | 0.00 | 0.10 | 0.00 | 58 | 1022.2 |
| 20260831193012 | 22 | 79 | 0.0 | 1.6 | 0.00 | 0.10 | 0.00 | 54 | 1022.4 |
| 20260831191511 | 23 | 80 | 0.0 | 1.6 | 0.00 | 0.10 | 0.00 | 56 | 1022.7 |